カタログに戻る

STARLINK-6379

運用中通信VLEO
NORAD 57343·PAYLOAD·🇺🇸 United States

打ち上げ Jul 16, 2023 から Cape Canaveral Space Force Station

Loading…

次のパス (今後24時間)

TLE

最新Source: CelesTrak SupGP

元期: Sep 15, 2026, 02:09 UTC

1 57343C 23099R   26258.09006944 -.00011347  00000+0 -41101-3 0  2585
2 57343  43.0001 263.0727 0001117 259.5904 299.3621 15.27583511    14

AllMySatでSTARLINK-6379をリアルタイム追跡

Download on the App Store